Weather in Sivas

Turkey     39°44′58″N   37°01′08″E
temp.,
°C
wind,
m/s
gust,
m/s
humid.,
%
clouds,
%
prec.,
mm/h
press.,
hPa
HPBL,
m
13 may, thu
thu1300:00+12ese114331 0.0 101110
03:00+11ene22410 0.0 101110
06:00+11ene22440 0.0 101111
09:00+18ese232915 0.0 1011441
12:00+23sse561967 0.0 10102530
15:00+24sw5616100 0.0 10093162
18:00+23wnw45250 0.0 1009286
21:00+16wnw11350 0.0 101111
14 may, fri
fri1400:00+14ssw11430 0.0 101211
03:00+13sse11410 0.0 101311
06:00+13e22400 0.0 101310
09:00+19ese12240 0.0 1013439
12:00+24s341619 0.0 10122191
15:00+25wsw131422 0.0 10102901
18:00+24w45205 0.0 1010301
21:00+18nw22260 0.0 101111
15 may, sat
sat1500:00+16n22440 0.0 101212
03:00+14e11510 0.0 101211
06:00+14ne00550 0.0 101211
09:00+21nne01330 0.0 1012445
12:00+25ese02200 0.0 10102673
15:00+26n02185 0.0 10083389
18:00+25n432758 0.0 10061071
21:00+18n22595 0.0 100821
16 may, sun
sun1600:00+16nnw22716 0.0 100814
03:00+15ene226681 0.0 100711
06:00+14ene226846 0.0 100716
09:00+20ese23430 0.0 1005437
12:00+26sse68163 0.0 10023363
15:00+26s8818100 0.0 10003917
18:00+23ssw7102382 0.0 1001759
21:00+17sw34307 0.0 100474
17 may, mon
mon1700:00+13wnw24605 0.0 1007107
03:00+11ssw11715 0.0 100715
06:00+11sw11765 0.0 100817
09:00+15sw345199 0.3 1008714
12:00+19sw6635100 0.1 10072310
15:00+17w465097 0.8 10091380
18:00+13s136126 3.1 1010300
21:00+11nw22755 3.4 101321